{"data":{"norad_id":63415,"epoch":"2026-05-25T02:01:20.508096Z","epoch_age_seconds":78516,"freshness":"FRESH","line1":"1 63415U 25065S   26145.08426514  .00011136  00000+0  41341-3 0  9992","line2":"2 63415  43.0043  35.5850 0001246 263.3479  96.7231 15.27592851 64528","mean_motion":15.27592851,"eccentricity":0.0001246,"inclination_deg":43.0043,"raan_deg":35.585,"arg_perigee_deg":263.3479,"mean_anomaly_deg":96.7231,"bstar":0.00041341,"rev_number":6452,"period_min":94.265955686906,"perigee_km":482.15571679937,"apogee_km":483.86551478522,"semimajor_km":6861.1476157923,"source":"CELESTRAK","updated_at":"2026-05-25T13:38:19.971900Z"}}